Flag for United Kingdom

Past Weather in Wakefield, England, United Kingdom — Yesterday and Last 2 Weeks

Now
54 °F

Fog.


Feels Like: 52 °F
Forecast: 63 / 54 °F
Wind: 6 mph from Northeast

Location: Leeds And Bradford

Current Time: Jul 2, 2020 at 2:47:37 pm

Latest Report: Jul 2, 2020 at 1:50 pm


Visibility: 2 mi

Pressure: 29.89 "Hg

Humidity: 94%

Dew Point: 52 °F

Location of WakefieldLocation

Past Weather in Wakefield — Graph

°F

Wakefield Temperature Yesterday

Maximum temperature yesterday: 64 °F (at 4:20 pm)
Minimum temperature yesterday: 54 °F (at 5:50 am)
Average temperature yesterday: 57 °F

High & Low Weather Summary for the Past Weeks

 TemperatureHumidityPressure
High81 °F (Jun 24, 3:20 pm)100% (Jun 18, 8:20 am)30.21 "Hg (Jun 18, 8:20 am)
Low48 °F (Jul 2, 6:20 am)42% (Jun 25, 3:50 pm)29.53 "Hg (Jun 28, 7:20 am)
Average61 °F80%29.85 "Hg
* Reported Jun 17 12:20 pm — Jul 2 12:50 pm, Wakefield. Weather by CustomWeather, © 2020

Note: Actual official high and low records may vary slightly from our data, if they occured in-between our weather recording intervals... More about our weather records

Wakefield Weather History for the Previous 24 Hours

Scroll right to see more
 ConditionsComfort  
Time TempWeatherWind HumidityBarometerVisibility
12:50 pm
Thu, Jul 2
52 °FFog.7 mph100%29.86 "Hg2 mi
12:20 pm52 °FFog.8 mph100%29.86 "Hg1 mi
11:20 am52 °FPartly sunny.8 mph94%29.86 "Hg4 mi
10:50 am52 °FLight rain. Broken clouds.9 mph94%29.83 "Hg6 mi
10:20 am50 °FLight rain. Broken clouds.8 mph100%29.83 "Hg6 mi
9:50 am50 °FBroken clouds.8 mph100%29.83 "Hg6 mi
9:20 am50 °FBroken clouds.10 mph100%29.80 "Hg4 mi
8:50 am50 °FBroken clouds.10 mph94%29.80 "Hg4 mi
8:20 am50 °FPartly sunny.12 mph100%29.80 "Hg4 mi
7:50 am48 °FPartly sunny.13 mph100%29.77 "Hg4 mi
7:20 am48 °FDrizzle. Fog.10 mph100%29.77 "Hg3 mi
6:50 am48 °FDrizzle. Fog.14 mph100%29.77 "Hg2 mi
6:20 am48 °FFog.13 mph100%29.74 "Hg2 mi
11:20 pm
Wed, Jul 1
54 °FFog.6 mph100%29.74 "Hg2 mi
10:50 pm54 °FFog.6 mph94%29.71 "Hg2 mi
10:20 pm54 °FFog.6 mph100%29.71 "Hg2 mi
9:50 pm54 °FFog.6 mph100%29.71 "Hg2 mi
9:20 pm54 °FFog.7 mph100%29.71 "HgN/A
8:50 pm55 °FFog.6 mph94%29.71 "HgN/A
8:20 pm55 °FBroken clouds.8 mph94%29.71 "HgN/A
7:50 pm55 °FBroken clouds.8 mph94%29.68 "HgN/A
7:20 pm55 °FBroken clouds.9 mph94%29.68 "HgN/A
6:50 pm57 °FScattered clouds.9 mph94%29.68 "HgN/A
6:20 pm57 °FScattered clouds.8 mph94%29.68 "HgN/A
5:50 pm57 °FBroken clouds.9 mph94%29.65 "HgN/A
5:20 pm59 °FScattered clouds.8 mph88%29.65 "HgN/A
4:50 pm63 °FLight rain. Scattered clouds.6 mph73%29.65 "HgN/A
4:20 pm64 °FPassing clouds.8 mph68%29.65 "HgN/A
3:50 pm63 °FScattered clouds.7 mph73%29.65 "HgN/A
3:20 pm61 °FScattered clouds.9 mph77%29.65 "HgN/A
2:50 pm61 °FScattered clouds.8 mph77%29.65 "HgN/A
2:20 pm63 °FScattered clouds.6 mph73%29.62 "HgN/A
Weather by CustomWeather, © 2020

See weather overview